Simultaneous Nadir Overpasses (SNOs) Predictions

Prediction of SNOs near US between AQUA and NPP Satellite Orbit:

Table of predicted SNOs near US for the next 10.0 days since TLE Epoch: 7/30/2022
Index Date (AQUA) Time (AQUA) AQUA Lat,Lon Date (NPP) Time (NPP) NPP Lat,Lon Distance(km) Time Diff (sec)
1 07/30/2022 06:47:10 42.02, -69.45 07/30/2022 06:44:56 42.46, -71.85 203.34 134
2 07/30/2022 08:23:50 49.88, -91.23 07/30/2022 08:24:08 50.43, -94.03 208.66 18
3 08/01/2022 19:21:26 49.98, -95.36 08/01/2022 19:14:26 49.56, -97.59 166.89 420
4 08/01/2022 21:00:18 49.97,-120.07 08/01/2022 20:55:55 49.50,-122.94 212.56 263
5 08/07/2022 07:32:34 49.89, -78.37 08/07/2022 07:33:29 50.49, -81.34 221.80 55
